Weather Data

Pearl Creek Farm: 8878 N Farm Road 75, Walnut Grove MO 65770

<== Previous Day (Sunday 20 Sep 2015) | Next Day (Tuesday 22 Sep 2015) ==>

Summary Precipitation Data For Monday 21 September 2015

ElementValueUnits
Precipitation0.01"
NotesHeavy dew.
SourcePearl Creek Farm

Summary Temperature Data For Monday 21 September 2015

ElementValueUnits
High Temperature80 oF
Low Temperature56 oF
Average Temperature66 oF
High Humidity93 %
Low Humidity65 %
Average Humidity83 %
SourcePearl Creek Farm

Detail Temperature Data For Monday 21 September 2015

Date / TimeTemp (F)RH (%)Dew Pt (F)Report Date / TimeSource
2015-09-21 00:00:00 60 88 56.4 2015-11-18 13:17:03 Pearl Creek Farm
2015-09-21 00:30:00 59 89 55.8 2015-11-18 13:17:03 Pearl Creek Farm
2015-09-21 01:00:00 59 89 55.6 2015-11-18 13:17:03 Pearl Creek Farm
2015-09-21 01:30:00 58 89 54.6 2015-11-18 13:17:03 Pearl Creek Farm
2015-09-21 02:00:00 58 89 54.6 2015-11-18 13:17:03 Pearl Creek Farm
2015-09-21 02:30:00 57 89 53.8 2015-11-18 13:17:03 Pearl Creek Farm
2015-09-21 03:00:00 57 89 53.8 2015-11-18 13:17:03 Pearl Creek Farm
2015-09-21 03:30:00 57 89 53.8 2015-11-18 13:17:03 Pearl Creek Farm
2015-09-21 04:00:00 57 90 54.1 2015-11-18 13:17:03 Pearl Creek Farm
2015-09-21 04:30:00 57 90 54.1 2015-11-18 13:17:03 Pearl Creek Farm
2015-09-21 05:00:00 56 90 53.1 2015-11-18 13:17:03 Pearl Creek Farm
2015-09-21 05:30:00 56 90 53.1 2015-11-18 13:17:03 Pearl Creek Farm
2015-09-21 06:00:00 56 90 53.1 2015-11-18 13:17:03 Pearl Creek Farm
2015-09-21 06:30:00 56 90 53.1 2015-11-18 13:17:03 Pearl Creek Farm
2015-09-21 07:00:00 56 91 53.3 2015-11-18 13:17:03 Pearl Creek Farm
2015-09-21 07:30:00 56 91 53.3 2015-11-18 13:17:03 Pearl Creek Farm
2015-09-21 08:00:00 56 93 53.9 2015-11-18 13:17:03 Pearl Creek Farm
2015-09-21 08:30:00 58 93 56.0 2015-11-18 13:17:03 Pearl Creek Farm
2015-09-21 09:00:00 60 93 58.0 2015-11-18 13:17:03 Pearl Creek Farm
2015-09-21 09:30:00 62 89 58.7 2015-11-18 13:17:03 Pearl Creek Farm
2015-09-21 10:00:00 64 85 59.4 2015-11-18 13:17:03 Pearl Creek Farm
2015-09-21 10:30:00 66 83 60.7 2015-11-18 13:17:03 Pearl Creek Farm
2015-09-21 11:00:00 68 82 62.1 2015-11-18 13:17:03 Pearl Creek Farm
2015-09-21 11:30:00 70 81 63.9 2015-11-18 13:17:03 Pearl Creek Farm
2015-09-21 12:00:00 72 78 64.6 2015-11-18 13:17:03 Pearl Creek Farm
2015-09-21 12:30:00 73 76 65.0 2015-11-18 13:17:03 Pearl Creek Farm
2015-09-21 13:00:00 75 73 65.6 2015-11-18 13:17:03 Pearl Creek Farm
2015-09-21 13:30:00 76 72 66.1 2015-11-18 13:17:03 Pearl Creek Farm
2015-09-21 14:00:00 77 69 66.0 2015-11-18 13:17:03 Pearl Creek Farm
2015-09-21 14:30:00 78 68 66.6 2015-11-18 13:17:03 Pearl Creek Farm
2015-09-21 15:00:00 79 65 66.0 2015-11-18 13:17:03 Pearl Creek Farm
2015-09-21 15:30:00 80 66 67.4 2015-11-18 13:17:03 Pearl Creek Farm
2015-09-21 16:00:00 80 68 68.5 2015-11-18 13:17:03 Pearl Creek Farm
2015-09-21 16:30:00 79 70 68.2 2015-11-18 13:17:03 Pearl Creek Farm
2015-09-21 17:00:00 78 73 68.4 2015-11-18 13:17:03 Pearl Creek Farm
2015-09-21 17:30:00 78 75 69.4 2015-11-18 13:17:03 Pearl Creek Farm
2015-09-21 18:00:00 77 76 68.7 2015-11-18 13:17:03 Pearl Creek Farm
2015-09-21 18:30:00 76 78 68.6 2015-11-18 13:17:03 Pearl Creek Farm
2015-09-21 19:00:00 74 80 67.3 2015-11-18 13:17:03 Pearl Creek Farm
2015-09-21 19:30:00 73 82 67.2 2015-11-18 13:17:03 Pearl Creek Farm
2015-09-21 20:00:00 71 83 65.6 2015-11-18 13:17:03 Pearl Creek Farm
2015-09-21 20:30:00 70 85 65.1 2015-11-18 13:17:03 Pearl Creek Farm
2015-09-21 21:00:00 69 86 64.5 2015-11-18 13:17:03 Pearl Creek Farm
2015-09-21 21:30:00 68 86 63.7 2015-11-18 13:17:03 Pearl Creek Farm
2015-09-21 22:00:00 67 87 63.0 2015-11-18 13:17:03 Pearl Creek Farm
2015-09-21 22:30:00 67 88 63.3 2015-11-18 13:17:03 Pearl Creek Farm
2015-09-21 23:00:00 66 89 62.5 2015-11-18 13:17:03 Pearl Creek Farm
2015-09-21 23:30:00 66 89 62.5 2015-11-18 13:17:03 Pearl Creek Farm

A total of 48 rows are displayed.